Weather History for Thomaston, GA

Change the Weather History Date:

Thursday, April 18, 2013

  Actual Average (KFFC) Record (KFFC)
Temperature  
Mean Temperature 70 °F 61 °F  
Max Temperature 82 °F 75 °F 88 °F (2002)
Min Temperature 59 °F 48 °F 30 °F (1997)
Degree Days  
Heating Degree Days 0 5  
Month to date heating degree days 121  
Since 1 July heating degree days 2873  
Cooling Degree Days 6 1  
Month to date cooling degree days 12  
Year to date cooling degree days 17  
Growing Degree Days 20 (Base 50)    
Moisture  
Dew Point 63 °F    
Average Humidity 79    
Maximum Humidity 100    
Minimum Humidity 51    
Precipitation  
Precipitation 0.00 in 0.12 in 1.25 in (2014)
Month to date precipitation 2.47  
Year to date precipitation 16.68  
Sea Level Pressure  
Sea Level Pressure 30.05 in    
Wind  
Wind Speed 5 mph (SSE)    
Max Wind Speed 16 mph    
Max Gust Speed 22 mph    
Visibility 10 miles    
Events      
T = Trace of Precipitation, MM = Missing Value Source: NWS Daily Summary

Daily Weather History Graph

Daily Weather History Graph

Search for Another Location

Airport:

Trip Planner

Search our weather history database for the weather conditions in past years. The results will help you decide how hot, cold, wet, or windy it might be!

Date:

Astronomy

Apr. 18, 2013 Rise Set
Actual Time 7:03 AM EDT 8:09 PM EDT
Civil Twilight 6:37 AM EDT 8:35 PM EDT
Nautical Twilight 6:07 AM EDT 9:05 PM EDT
Astronomical Twilight 5:36 AM EDT 9:37 PM EDT
Moon 1:17 PM EDT (4/18) 2:19 AM EDT (4/18)
Length of Visible Light 13h 57m
Length of Day
13h 06m
First Quarter, 51% of the Moon is Illuminated
Apr 18
First Quarter
Apr 25
Full
May 2
Last Quarter
May 9
New
May 18
First Quarter

Hourly Weather History & Observations

Time (EDT) Temp. Heat Index Dew Point Humidity Pressure Visibility Wind Dir Wind Speed Gust Speed Precip Events Conditions
12:15 AM 68.0 °F - 62.6 °F 83% 30.12 in 10.0 mi Calm Calm - N/A   Clear
12:35 AM 66.2 °F - 62.6 °F 88% 30.11 in 10.0 mi ESE 3.5 mph - N/A   Clear
12:55 AM 64.4 °F - 60.8 °F 88% 30.11 in 10.0 mi Calm Calm - N/A   Clear
1:15 AM 64.4 °F - 62.6 °F 94% 30.10 in 10.0 mi SSE 3.5 mph - N/A   Clear
1:35 AM 64.4 °F - 62.6 °F 94% 30.10 in 10.0 mi Calm Calm - N/A   Clear
1:55 AM 62.6 °F - 60.8 °F 94% 30.09 in 10.0 mi South 3.5 mph - N/A   Clear
2:15 AM 62.6 °F - 62.6 °F 100% 30.09 in 10.0 mi South 4.6 mph - N/A   Clear
2:35 AM 62.6 °F - 60.8 °F 94% 30.09 in 10.0 mi South 4.6 mph - N/A   Clear
2:55 AM 62.6 °F - 60.8 °F 94% 30.09 in 10.0 mi Calm Calm - N/A   Clear
3:15 AM 62.6 °F - 60.8 °F 94% 30.08 in 10.0 mi SSE 3.5 mph - N/A   Clear
3:35 AM 60.8 °F - 60.8 °F 100% 30.08 in 10.0 mi SE 3.5 mph - N/A   Clear
3:55 AM 60.8 °F - 60.8 °F 100% 30.08 in 10.0 mi Calm Calm - N/A   Clear
4:15 AM 60.8 °F - 60.8 °F 100% 30.08 in 10.0 mi Calm Calm - N/A   Clear
4:35 AM 60.8 °F - 60.8 °F 100% 30.09 in 10.0 mi Calm Calm - N/A   Clear
4:55 AM 60.8 °F - 60.8 °F 100% 30.09 in 10.0 mi Calm Calm - N/A   Clear
5:15 AM 60.8 °F - 60.8 °F 100% 30.08 in 10.0 mi SSE 3.5 mph - N/A   Clear
5:35 AM 60.8 °F - 60.8 °F 100% 30.08 in 10.0 mi SE 4.6 mph - N/A   Clear
5:55 AM 59.0 °F - 59.0 °F 100% 30.08 in 7.0 mi SE 4.6 mph - N/A   Clear
6:15 AM 59.0 °F - 59.0 °F 100% 30.08 in 7.0 mi SE 3.5 mph - N/A   Clear
6:35 AM 59.0 °F - 59.0 °F 100% 30.09 in 4.0 mi ESE 3.5 mph - N/A   Clear
6:55 AM 60.8 °F - 60.8 °F 100% 30.09 in 7.0 mi ESE 4.6 mph - N/A   Clear
7:15 AM 60.8 °F - 60.8 °F 100% 30.09 in 7.0 mi SE 5.8 mph - N/A   Clear
7:35 AM 60.8 °F - 60.8 °F 100% 30.10 in 10.0 mi ESE 5.8 mph - N/A   Clear
7:55 AM 62.6 °F - 62.6 °F 100% 30.10 in 10.0 mi ESE 5.8 mph - N/A   Clear
8:15 AM 62.6 °F - 62.6 °F 100% 30.11 in 10.0 mi SE 5.8 mph - N/A   Clear
8:35 AM 62.6 °F - 62.6 °F 100% 30.11 in 10.0 mi SE 6.9 mph - N/A   Clear
8:55 AM 64.4 °F - 62.6 °F 94% 30.11 in 10.0 mi SE 8.1 mph - N/A   Clear
9:15 AM 66.2 °F - 64.4 °F 94% 30.11 in 10.0 mi SE 8.1 mph - N/A   Clear
9:35 AM 68.0 °F - 64.4 °F 88% 30.11 in 10.0 mi SSE 9.2 mph - N/A   Scattered Clouds
9:55 AM 69.8 °F - 64.4 °F 83% 30.11 in 10.0 mi SSE 8.1 mph - N/A   Scattered Clouds
10:15 AM 69.8 °F - 64.4 °F 83% 30.11 in 10.0 mi SSE 9.2 mph - N/A   Scattered Clouds
10:35 AM 71.6 °F - 66.2 °F 83% 30.11 in 10.0 mi SSE 8.1 mph - N/A   Scattered Clouds
10:55 AM 71.6 °F - 64.4 °F 78% 30.11 in 10.0 mi South 10.4 mph - N/A   Mostly Cloudy
11:15 AM 71.6 °F - 64.4 °F 78% 30.11 in 10.0 mi South 9.2 mph - N/A   Mostly Cloudy
11:35 AM 73.4 °F - 66.2 °F 78% 30.11 in 10.0 mi SSE 11.5 mph - N/A   Scattered Clouds
11:55 AM 77.0 °F - 66.2 °F 69% 30.10 in 10.0 mi SSE 12.7 mph - N/A   Mostly Cloudy
12:15 PM 75.2 °F - 64.4 °F 69% 30.10 in 10.0 mi South 8.1 mph - N/A   Mostly Cloudy
12:35 PM 73.4 °F - 64.4 °F 73% 30.09 in 10.0 mi South 9.2 mph - N/A   Mostly Cloudy
12:55 PM 77.0 °F - 64.4 °F 65% 30.08 in 10.0 mi South 10.4 mph 18.4 mph N/A   Mostly Cloudy
1:15 PM 77.0 °F - 64.4 °F 65% 30.08 in 10.0 mi SSE 12.7 mph 17.3 mph N/A   Overcast
1:35 PM 77.0 °F - 64.4 °F 65% 30.06 in 10.0 mi South 11.5 mph - N/A   Mostly Cloudy
1:55 PM 77.0 °F - 64.4 °F 65% 30.05 in 10.0 mi SSE 11.5 mph 21.9 mph N/A   Mostly Cloudy
2:15 PM 80.6 °F 81.8 °F 62.6 °F 54% 30.05 in 10.0 mi South 16.1 mph 19.6 mph N/A   Scattered Clouds
2:35 PM 80.6 °F 82.3 °F 64.4 °F 58% 30.04 in 10.0 mi SSE 10.4 mph 18.4 mph N/A   Mostly Cloudy
2:55 PM 80.6 °F 82.3 °F 64.4 °F 58% 30.04 in 10.0 mi SE 12.7 mph 18.4 mph N/A   Mostly Cloudy
3:15 PM 78.8 °F - 60.8 °F 54% 30.03 in 10.0 mi South 12.7 mph - N/A   Mostly Cloudy
3:35 PM 80.6 °F 81.8 °F 62.6 °F 54% 30.02 in 10.0 mi South 10.4 mph - N/A   Scattered Clouds
3:55 PM 80.6 °F 81.8 °F 62.6 °F 54% 30.01 in 10.0 mi South 11.5 mph 19.6 mph N/A   Mostly Cloudy
4:15 PM 82.4 °F 83.4 °F 62.6 °F 51% 30.01 in 10.0 mi South 10.4 mph 17.3 mph N/A   Mostly Cloudy
4:35 PM 82.4 °F 83.4 °F 62.6 °F 51% 29.99 in 10.0 mi SSE 10.4 mph - N/A   Mostly Cloudy
4:55 PM 80.6 °F 81.8 °F 62.6 °F 54% 29.99 in 10.0 mi South 11.5 mph - N/A   Mostly Cloudy
5:15 PM 78.8 °F - 62.6 °F 57% 29.98 in 10.0 mi South 11.5 mph - N/A   Mostly Cloudy
5:35 PM 80.6 °F 81.8 °F 62.6 °F 54% 29.97 in 10.0 mi South 13.8 mph 17.3 mph N/A   Scattered Clouds
5:55 PM 80.6 °F 81.8 °F 62.6 °F 54% 29.97 in 10.0 mi South 8.1 mph - N/A   Scattered Clouds
6:15 PM 78.8 °F - 62.6 °F 57% 29.97 in 10.0 mi South 9.2 mph - N/A   Clear
6:35 PM 78.8 °F - 62.6 °F 57% 29.97 in 10.0 mi SSE 6.9 mph - N/A   Clear
6:55 PM 77.0 °F - 62.6 °F 61% 29.97 in 10.0 mi South 8.1 mph - N/A   Scattered Clouds
7:15 PM 77.0 °F - 62.6 °F 61% 29.97 in 10.0 mi SSE 6.9 mph - N/A   Scattered Clouds
7:35 PM 75.2 °F - 62.6 °F 65% 29.97 in 10.0 mi SSE 5.8 mph - N/A   Scattered Clouds
7:55 PM 73.4 °F - 62.6 °F 69% 29.97 in 10.0 mi SSE 5.8 mph - N/A   Scattered Clouds
8:15 PM 73.4 °F - 62.6 °F 69% 29.97 in 10.0 mi SSE 4.6 mph - N/A   Scattered Clouds
8:35 PM 71.6 °F - 62.6 °F 73% 29.97 in 10.0 mi SSE 4.6 mph - N/A   Scattered Clouds
8:55 PM 71.6 °F - 62.6 °F 73% 29.97 in 10.0 mi SSE 5.8 mph - N/A   Clear
9:15 PM 69.8 °F - 62.6 °F 78% 29.98 in 10.0 mi SSE 4.6 mph - N/A   Clear
9:35 PM 68.0 °F - 62.6 °F 83% 29.98 in 10.0 mi SSE 4.6 mph - N/A   Scattered Clouds
10:55 PM 69.8 °F - 62.6 °F 78% 29.98 in 10.0 mi South 5.8 mph - N/A   Clear
11:15 PM 69.8 °F - 62.6 °F 78% 29.97 in 10.0 mi South 6.9 mph - N/A   Scattered Clouds
11:35 PM 69.8 °F - 62.6 °F 78% 29.96 in 10.0 mi South 4.6 mph - N/A   Clear
11:55 PM 69.8 °F - 62.6 °F 78% 29.96 in 10.0 mi SSW 6.9 mph - N/A   Clear